Time,TemperatureF,DewpointF,PressureIn,WindDirection,WindDirectionDegrees,WindSpeedMPH,WindSpeedGustMPH,Humidity,HourlyPrecipIn,Conditions,Clouds,dailyrainin,SoftwareType,DateUTC
2013-02-19 00:04:00,20.9,7.0,30.19,WSW,252,3.0,5.0,56,0.00,,,0.00,weatherlink.com 1.10,2013-02-19 07:04:00,
2013-02-19 00:19:00,20.4,7.0,30.18,West,271,1.0,4.0,57,0.00,,,0.00,weatherlink.com 1.10,2013-02-19 07:19:00,
2013-02-19 00:34:00,20.1,7.0,30.18,WSW,254,1.0,4.0,57,0.00,,,0.00,weatherlink.com 1.10,2013-02-19 07:34:00,
2013-02-19 00:49:00,19.8,7.0,30.18,WSW,255,2.0,4.0,57,0.00,,,0.00,weatherlink.com 1.10,2013-02-19 07:49:00,
2013-02-19 01:04:00,19.6,7.0,30.18,West,276,3.0,5.0,58,0.00,,,0.00,weatherlink.com 1.10,2013-02-19 08:04:00,
2013-02-19 01:19:00,19.4,7.0,30.18,West,274,3.0,5.0,58,0.00,,,0.00,weatherlink.com 1.10,2013-02-19 08:19:00,
2013-02-19 01:34:00,19.4,7.0,30.17,West,280,2.0,4.0,58,0.00,,,0.00,weatherlink.com 1.10,2013-02-19 08:34:00,
2013-02-19 01:49:00,19.6,7.0,30.17,West,277,2.0,5.0,58,0.00,,,0.00,weatherlink.com 1.10,2013-02-19 08:49:00,
2013-02-19 02:04:00,20.1,7.0,30.16,WNW,286,3.0,8.0,57,0.00,,,0.00,weatherlink.com 1.10,2013-02-19 09:04:00,
2013-02-19 02:19:00,20.5,7.0,30.16,WSW,251,2.0,4.0,56,0.00,,,0.00,weatherlink.com 1.10,2013-02-19 09:19:00,
2013-02-19 02:34:00,20.8,7.0,30.16,West,275,2.0,5.0,55,0.00,,,0.00,weatherlink.com 1.10,2013-02-19 09:34:00,
2013-02-19 02:49:00,21.3,7.0,30.15,WNW,287,1.0,4.0,54,0.00,,,0.00,weatherlink.com 1.10,2013-02-19 09:49:00,
2013-02-19 03:05:00,21.7,8.0,30.15,WSW,250,2.0,3.0,55,0.00,,,0.00,weatherlink.com 1.10,2013-02-19 10:05:00,
2013-02-19 03:20:00,21.8,7.0,30.15,WSW,253,2.0,4.0,53,0.00,,,0.00,weatherlink.com 1.10,2013-02-19 10:20:00,
2013-02-19 03:35:00,22.0,7.0,30.15,West,268,1.0,4.0,53,0.00,,,0.00,weatherlink.com 1.10,2013-02-19 10:35:00,
2013-02-19 03:50:00,22.2,7.0,30.15,WSW,248,3.0,5.0,53,0.00,,,0.00,weatherlink.com 1.10,2013-02-19 10:50:00,
2013-02-19 04:05:00,22.3,7.0,30.14,WSW,257,2.0,4.0,53,0.00,,,0.00,weatherlink.com 1.10,2013-02-19 11:05:00,
2013-02-19 04:20:00,22.4,8.0,30.14,WSW,254,2.0,2.0,53,0.00,,,0.00,weatherlink.com 1.10,2013-02-19 11:20:00,
2013-02-19 04:35:00,22.5,8.0,30.14,WSW,253,1.0,2.0,54,0.00,,,0.00,weatherlink.com 1.10,2013-02-19 11:35:00,
2013-02-19 04:50:00,22.3,8.0,30.14,WSW,257,1.0,2.0,54,0.00,,,0.00,weatherlink.com 1.10,2013-02-19 11:50:00,
2013-02-19 05:05:00,22.0,8.0,30.13,WSW,254,1.0,1.0,54,0.00,,,0.00,weatherlink.com 1.10,2013-02-19 12:05:00,
2013-02-19 05:20:00,21.9,8.0,30.13,NW,312,1.0,2.0,55,0.00,,,0.00,weatherlink.com 1.10,2013-02-19 12:20:00,
2013-02-19 05:35:00,21.8,8.0,30.12,WNW,300,0.0,2.0,55,0.00,,,0.00,weatherlink.com 1.10,2013-02-19 12:35:00,
2013-02-19 05:50:00,21.8,8.0,30.12,WNW,288,1.0,2.0,56,0.00,,,0.00,weatherlink.com 1.10,2013-02-19 12:50:00,
2013-02-19 06:05:00,21.7,8.0,30.13,WNW,294,1.0,2.0,56,0.00,,,0.00,weatherlink.com 1.10,2013-02-19 13:05:00,
2013-02-19 06:20:00,21.6,8.0,30.12,West,281,1.0,2.0,56,0.00,,,0.00,weatherlink.com 1.10,2013-02-19 13:20:00,
2013-02-19 06:35:00,21.4,8.0,30.13,WNW,294,1.0,2.0,57,0.00,,,0.00,weatherlink.com 1.10,2013-02-19 13:35:00,
2013-02-19 06:50:00,21.4,9.0,30.12,WNW,284,1.0,2.0,59,0.00,,,0.00,weatherlink.com 1.10,2013-02-19 13:50:00,
2013-02-19 07:05:00,21.4,9.0,30.12,West,267,1.0,3.0,58,0.00,,,0.00,weatherlink.com 1.10,2013-02-19 14:05:00,
2013-02-19 07:20:00,21.5,9.0,30.12,West,265,1.0,2.0,58,0.00,,,0.00,weatherlink.com 1.10,2013-02-19 14:20:00,
2013-02-19 07:35:00,22.0,9.0,30.12,West,271,0.0,2.0,57,0.00,,,0.00,weatherlink.com 1.10,2013-02-19 14:35:00,
2013-02-19 07:50:00,21.4,9.0,30.13,ENE,57,0.0,2.0,59,0.00,,,0.00,weatherlink.com 1.10,2013-02-19 14:50:00,
2013-02-19 08:05:00,20.8,10.0,30.13,WSW,250,0.0,2.0,64,0.00,,,0.00,weatherlink.com 1.10,2013-02-19 15:05:00,
2013-02-19 08:20:00,22.5,10.0,30.13,NNE,24,0.0,1.0,60,0.00,,,0.00,weatherlink.com 1.10,2013-02-19 15:20:00,
2013-02-19 08:35:00,22.6,12.0,30.14,SE,124,1.0,3.0,63,0.00,,,0.00,weatherlink.com 1.10,2013-02-19 15:35:00,
2013-02-19 08:50:00,20.9,11.0,30.14,SSW,209,1.0,4.0,67,0.00,,,0.00,weatherlink.com 1.10,2013-02-19 15:50:00,
2013-02-19 09:05:00,20.7,12.0,30.15,SE,136,1.0,4.0,70,0.00,,,0.00,weatherlink.com 1.10,2013-02-19 16:05:00,
2013-02-19 09:20:00,20.8,13.0,30.14,SSE,147,1.0,2.0,71,0.00,,,0.00,weatherlink.com 1.10,2013-02-19 16:20:00,
2013-02-19 09:35:00,20.6,13.0,30.14,SE,127,1.0,3.0,73,0.00,,,0.00,weatherlink.com 1.10,2013-02-19 16:35:00,
2013-02-19 09:50:00,23.6,14.0,30.13,SE,131,0.0,0.0,68,0.00,,,0.00,weatherlink.com 1.10,2013-02-19 16:50:00,
2013-02-19 10:05:00,24.3,15.0,30.13,SE,131,0.0,0.0,67,0.00,,,0.00,weatherlink.com 1.10,2013-02-19 17:05:00,
2013-02-19 10:20:00,24.8,15.0,30.13,SE,131,0.0,4.0,66,0.00,,,0.00,weatherlink.com 1.10,2013-02-19 17:20:00,
2013-02-19 10:35:00,25.2,16.0,30.13,SE,131,0.0,3.0,67,0.00,,,0.00,weatherlink.com 1.10,2013-02-19 17:35:00,
2013-02-19 10:50:00,26.0,16.0,30.13,SE,131,1.0,4.0,65,0.00,,,0.00,weatherlink.com 1.10,2013-02-19 17:50:00,
2013-02-19 11:05:00,26.4,16.0,30.11,SE,131,0.0,0.0,65,0.00,,,0.00,weatherlink.com 1.10,2013-02-19 18:05:00,
2013-02-19 11:20:00,27.1,16.0,30.11,SE,131,0.0,0.0,62,0.00,,,0.00,weatherlink.com 1.10,2013-02-19 18:20:00,
2013-02-19 11:35:00,27.9,16.0,30.10,SE,131,0.0,4.0,61,0.00,,,0.00,weatherlink.com 1.10,2013-02-19 18:35:00,
2013-02-19 11:50:00,29.9,17.0,30.09,SE,125,2.0,7.0,60,0.00,,,0.00,weatherlink.com 1.10,2013-02-19 18:50:00,
2013-02-19 12:05:00,31.3,18.0,30.09,SE,125,0.0,4.0,57,0.00,,,0.00,weatherlink.com 1.10,2013-02-19 19:05:00,
2013-02-19 12:21:00,32.8,18.0,30.07,ESE,121,7.0,7.0,54,0.00,,,0.00,weatherlink.com 1.10,2013-02-19 19:21:00,
2013-02-19 12:36:00,32.8,17.0,30.06,ESE,113,5.0,7.0,53,0.00,,,0.00,weatherlink.com 1.10,2013-02-19 19:36:00,
2013-02-19 12:51:00,33.6,18.0,30.05,ESE,107,5.0,9.0,52,0.00,,,0.00,weatherlink.com 1.10,2013-02-19 19:51:00,
2013-02-19 13:06:00,34.2,17.0,30.04,ESE,105,0.0,7.0,50,0.00,,,0.00,weatherlink.com 1.10,2013-02-19 20:06:00,
2013-02-19 13:21:00,34.7,17.0,30.03,East,96,3.0,9.0,49,0.00,,,0.00,weatherlink.com 1.10,2013-02-19 20:21:00,
2013-02-19 13:36:00,34.8,17.0,30.02,East,95,5.0,9.0,49,0.00,,,0.00,weatherlink.com 1.10,2013-02-19 20:36:00,
2013-02-19 13:51:00,35.4,17.0,30.02,East,87,5.0,9.0,47,0.00,,,0.00,weatherlink.com 1.10,2013-02-19 20:51:00,
2013-02-19 14:06:00,35.7,17.0,30.02,East,87,0.0,9.0,47,0.00,,,0.00,weatherlink.com 1.10,2013-02-19 21:06:00,
2013-02-19 14:21:00,36.5,17.0,30.01,East,87,1.0,7.0,46,0.00,,,0.00,weatherlink.com 1.10,2013-02-19 21:21:00,
2013-02-19 14:36:00,37.7,17.0,30.01,East,87,0.0,5.0,43,0.00,,,0.00,weatherlink.com 1.10,2013-02-19 21:36:00,
2013-02-19 14:51:00,38.1,17.0,30.00,East,87,2.0,7.0,42,0.00,,,0.00,weatherlink.com 1.10,2013-02-19 21:51:00,
2013-02-19 15:06:00,38.7,16.0,30.00,East,87,0.0,6.0,39,0.00,,,0.00,weatherlink.com 1.10,2013-02-19 22:06:00,
2013-02-19 15:21:00,39.3,15.0,29.99,East,87,0.0,3.0,38,0.00,,,0.00,weatherlink.com 1.10,2013-02-19 22:21:00,
2013-02-19 15:36:00,39.5,14.0,29.99,East,87,8.0,9.0,35,0.00,,,0.00,weatherlink.com 1.10,2013-02-19 22:36:00,
2013-02-19 15:51:00,39.1,13.0,29.99,East,83,6.0,9.0,35,0.00,,,0.00,weatherlink.com 1.10,2013-02-19 22:51:00,
2013-02-19 16:06:00,39.2,14.0,29.99,East,83,5.0,8.0,35,0.00,,,0.00,weatherlink.com 1.10,2013-02-19 23:06:00,
2013-02-19 16:21:00,39.4,14.0,29.98,East,83,3.0,7.0,36,0.00,,,0.00,weatherlink.com 1.10,2013-02-19 23:21:00,
2013-02-19 16:36:00,38.7,14.0,29.98,East,83,5.0,8.0,37,0.00,,,0.00,weatherlink.com 1.10,2013-02-19 23:36:00,
2013-02-19 16:52:00,37.7,15.0,29.98,East,83,5.0,5.0,39,0.00,,,0.00,weatherlink.com 1.10,2013-02-19 23:52:00,
2013-02-19 17:07:00,37.0,15.0,29.98,East,83,3.0,5.0,40,0.00,,,0.00,weatherlink.com 1.10,2013-02-20 00:07:00,
2013-02-19 17:22:00,36.3,15.0,29.98,East,83,0.0,1.0,41,0.00,,,0.00,weatherlink.com 1.10,2013-02-20 00:22:00,
2013-02-19 17:37:00,35.7,14.0,29.98,East,83,0.0,1.0,41,0.00,,,0.00,weatherlink.com 1.10,2013-02-20 00:37:00,
2013-02-19 17:52:00,35.2,14.0,29.98,East,83,0.0,0.0,42,0.00,,,0.00,weatherlink.com 1.10,2013-02-20 00:52:00,
2013-02-19 18:07:00,34.4,14.0,29.98,East,83,0.0,1.0,44,0.00,,,0.00,weatherlink.com 1.10,2013-02-20 01:07:00,
2013-02-19 18:22:00,33.9,14.0,29.99,East,83,0.0,2.0,44,0.00,,,0.00,weatherlink.com 1.10,2013-02-20 01:22:00,
2013-02-19 18:37:00,32.7,13.0,29.99,East,83,0.0,0.0,45,0.00,,,0.00,weatherlink.com 1.10,2013-02-20 01:37:00,
2013-02-19 18:52:00,31.5,13.0,29.98,East,83,0.0,2.0,47,0.00,,,0.00,weatherlink.com 1.10,2013-02-20 01:52:00,
2013-02-19 19:07:00,32.4,13.0,29.99,NW,305,3.0,4.0,44,0.00,,,0.00,weatherlink.com 1.10,2013-02-20 02:07:00,
2013-02-19 19:22:00,32.2,13.0,29.98,NW,305,3.0,4.0,45,0.00,,,0.00,weatherlink.com 1.10,2013-02-20 02:22:00,
2013-02-19 19:37:00,31.2,13.0,29.97,NW,305,3.0,4.0,47,0.00,,,0.00,weatherlink.com 1.10,2013-02-20 02:37:00,
2013-02-19 19:52:00,29.8,13.0,29.97,NW,305,0.0,2.0,49,0.00,,,0.00,weatherlink.com 1.10,2013-02-20 02:52:00,
2013-02-19 20:07:00,29.3,13.0,29.96,NW,305,3.0,3.0,51,0.00,,,0.00,weatherlink.com 1.10,2013-02-20 03:07:00,
2013-02-19 20:22:00,30.3,14.0,29.96,NW,305,3.0,5.0,51,0.00,,,0.00,weatherlink.com 1.10,2013-02-20 03:22:00,
2013-02-19 20:37:00,31.0,14.0,29.97,NW,305,1.0,3.0,49,0.00,,,0.00,weatherlink.com 1.10,2013-02-20 03:37:00,
2013-02-19 20:52:00,31.3,14.0,29.96,NNW,337,4.0,8.0,49,0.00,,,0.00,weatherlink.com 1.10,2013-02-20 03:52:00,
2013-02-19 21:07:00,31.5,14.0,29.96,NNW,337,3.0,6.0,48,0.00,,,0.00,weatherlink.com 1.10,2013-02-20 04:07:00,
2013-02-19 21:22:00,31.3,14.0,29.96,NNW,337,5.0,5.0,49,0.00,,,0.00,weatherlink.com 1.10,2013-02-20 04:22:00,
2013-02-19 21:37:00,30.6,14.0,29.96,NNE,33,3.0,7.0,50,0.00,,,0.00,weatherlink.com 1.10,2013-02-20 04:37:00,
2013-02-19 21:52:00,28.7,15.0,29.95,NNE,23,7.0,14.0,57,0.00,,,0.00,weatherlink.com 1.10,2013-02-20 04:52:00,
2013-02-19 22:07:00,27.3,15.0,29.95,NNE,22,6.0,8.0,61,0.00,,,0.00,weatherlink.com 1.10,2013-02-20 05:07:00,
2013-02-19 22:22:00,26.1,15.0,29.94,NNE,25,4.0,8.0,63,0.00,,,0.00,weatherlink.com 1.10,2013-02-20 05:22:00,
2013-02-19 22:37:00,25.7,15.0,29.94,NNE,28,4.0,6.0,65,0.00,,,0.00,weatherlink.com 1.10,2013-02-20 05:37:00,
2013-02-19 22:52:00,26.1,16.0,29.93,NNE,32,3.0,5.0,65,0.00,,,0.00,weatherlink.com 1.10,2013-02-20 05:52:00,
2013-02-19 23:07:00,25.6,16.0,29.92,NNE,32,2.0,4.0,67,0.00,,,0.00,weatherlink.com 1.10,2013-02-20 06:07:00,
2013-02-19 23:22:00,25.0,16.0,29.91,NNE,32,0.0,0.0,68,0.00,,,0.00,weatherlink.com 1.10,2013-02-20 06:22:00,
2013-02-19 23:37:00,24.3,15.0,29.91,NNE,32,0.0,0.0,69,0.00,,,0.00,weatherlink.com 1.10,2013-02-20 06:37:00,
2013-02-19 23:52:00,23.3,15.0,29.91,NNE,32,0.0,1.0,71,0.00,,,0.00,weatherlink.com 1.10,2013-02-20 06:52:00,